Mansfield, OH

9:45 AM EDT on October 23, 2019 (GMT -0400)
Mansfield Lahm Regional

Weather History for KMFD - September, 2019

Change the Weather History Date:

Friday, September 20, 2019

  Actual Average Record
Temperature  
Mean Temperature 74 °F 61 °F  
Max Temperature 85 °F 72 °F 91 °F (1978)
Min Temperature 62 °F 51 °F 33 °F (1956)
Degree Days  
Heating Degree Days 0 5  
Month to date heating degree days 4 55  
Since 1 July heating degree days 4 80  
Cooling Degree Days 9 2  
Month to date cooling degree days 109 54  
Year to date cooling degree days 887 616  
Growing Degree Days 23 (Base 50)    
Moisture  
Dew Point 61 °F    
Average Humidity 73    
Maximum Humidity 90    
Minimum Humidity 55    
Precipitation  
Precipitation 0.00 in 0.11 in 2.14 in (1967)
Month to date precipitation 1.77 2.26  
Year to date precipitation 38.15 33.09  
Snow  
Snow 0.00 in 0.00 in - ()
Month to date snowfall 0.0 0.0  
Since 1 July snowfall 0.0 0.0  
Since 1 September snowfall 0.0 0.0  
Snow Depth 0.00 in    
Sea Level Pressure  
Sea Level Pressure 30.16 in    
Wind  
Wind Speed 8 mph (SSE)    
Max Wind Speed 13 mph    
Max Gust Speed 17 mph    
Visibility 10 miles    
Events      
T = Trace of Precipitation, MM = Missing Value Source: NWS Daily Summary

Daily Weather History Graph

Daily Weather History Graph

Search for Another Location

Airport or City:

Astronomy

Sep. 20, 2019 Rise Set
Actual Time 7:15 AM EDT 7:31 PM EDT
Civil Twilight 6:47 AM EDT 7:58 PM EDT
Nautical Twilight 6:15 AM EDT 8:30 PM EDT
Astronomical Twilight 5:42 AM EDT 9:03 PM EDT
Moon 11:17 PM EDT (9/20) 1:21 PM EDT (9/20)
Length of Visible Light 13h 10m
Length of Day
12h 15m
Waning Gibbous, 65% of the Moon is Illuminated
Sep 20
Waning Gibbous
Sep 21
Last Quarter
Sep 28
New
Oct 5
First Quarter
Oct 13
Full

Hourly Weather History & Observations

Time (EDT) Temp. Heat Index Dew Point Humidity Pressure Visibility Wind Dir Wind Speed Gust Speed Precip Events Conditions
12:52 AM 66.9 °F - 55.0 °F 66% 30.15 in 10.0 mi SSE 9.2 mph - N/A   Scattered Clouds
1:52 AM 64.9 °F - 54.0 °F 68% 30.15 in 10.0 mi SSE 9.2 mph - N/A   Clear
2:52 AM 64.9 °F - 53.1 °F 65% 30.15 in 10.0 mi South 9.2 mph - N/A   Clear
3:52 AM 64.0 °F - 53.1 °F 67% 30.15 in 10.0 mi SSE 10.4 mph - N/A   Clear
4:52 AM 64.0 °F - 53.1 °F 67% 30.16 in 10.0 mi SSE 9.2 mph - N/A   Clear
5:52 AM 63.0 °F - 54.0 °F 72% 30.17 in 10.0 mi SSE 8.1 mph - N/A   Clear
6:52 AM 62.1 °F - 55.0 °F 78% 30.17 in 10.0 mi South 6.9 mph - N/A   Clear
7:52 AM 64.0 °F - 57.9 °F 80% 30.18 in 10.0 mi SSE 6.9 mph - N/A   Clear
8:52 AM 66.9 °F - 59.0 °F 76% 30.19 in 10.0 mi SSE 9.2 mph - N/A   Clear
9:52 AM 72.0 °F - 62.1 °F 71% 30.20 in 10.0 mi SSE 8.1 mph - N/A   Clear
10:52 AM 75.0 °F - 63.0 °F 66% 30.19 in 10.0 mi South 4.6 mph - N/A   Clear
11:52 AM 78.1 °F - 64.9 °F 64% 30.19 in 10.0 mi SE 6.9 mph - N/A   Clear
12:52 PM 81.0 °F 83.0 °F 66.0 °F 60% 30.18 in 10.0 mi SSE 5.8 mph - N/A   Clear
1:52 PM 82.0 °F 83.8 °F 64.9 °F 56% 30.17 in 10.0 mi SE 4.6 mph - N/A   Partly Cloudy
2:52 PM 84.0 °F 86.3 °F 66.0 °F 55% 30.15 in 9.0 mi South 9.2 mph - N/A   Mostly Cloudy
3:52 PM 84.0 °F 86.3 °F 66.0 °F 55% 30.14 in 10.0 mi SE 11.5 mph - N/A   Partly Cloudy
4:52 PM 84.0 °F 86.3 °F 66.0 °F 55% 30.13 in 7.0 mi South 9.2 mph - N/A   Partly Cloudy
5:52 PM 82.9 °F 85.0 °F 66.0 °F 56% 30.13 in 10.0 mi SSE 9.2 mph - N/A   Clear
6:52 PM 80.1 °F 82.1 °F 66.0 °F 62% 30.14 in 10.0 mi SE 6.9 mph - N/A   Mostly Cloudy
7:52 PM 77.0 °F - 66.0 °F 69% 30.15 in 10.0 mi SE 5.8 mph - N/A   Scattered Clouds
8:52 PM 75.9 °F - 66.0 °F 71% 30.16 in 10.0 mi SE 6.9 mph - N/A   Overcast
9:52 PM 73.9 °F - 66.0 °F 76% 30.17 in 10.0 mi SSE 6.9 mph - N/A   Clear
10:52 PM 73.0 °F - 66.0 °F 79% 30.17 in 10.0 mi South 6.9 mph - N/A   Clear
11:52 PM 70.0 °F - 66.0 °F 87% 30.17 in 10.0 mi South 5.8 mph - N/A   Clear